When you browse on this site, cookies collect data to enhance your experience and personalize the content and advertising you see.
Visit our Privacy Policy to learn more. By continuing to use the site, you agree to this use of cookies and data.
  • In Deutschland
  • Länderverzeichnis
  • Für 7 Tage
  • Wassertemperatur
  • Satellitenkarten
  • Wetterkarte
  • Widgets
  • user-avatar
    Anmelden

    Stündliche Wetter Kinshasa

    Heute, 16 Januar, Mittwoch

    Zeit Temperatur Niederschläge Wind Luftdruck Luftfeuchtigkeit
    00:00 +24°C° 0 mm 0 m/S 708 mmHg 39%
    01:00 +24°C° 0 mm 0 m/S 708 mmHg 45%
    02:00 +23°C° 0 mm 0 m/S 708 mmHg 43%
    03:00 +23°C° 0 mm 0 m/S 708 mmHg 41%
    04:00 +23°C° 0 mm 0 m/S 708 mmHg 39%
    05:00 +23°C° 0 mm 0 m/S 708 mmHg 37%
    06:00 +23°C° 0 mm 0 m/S 709 mmHg 34%
    07:00 +24°C° 0 mm 0 m/S 709 mmHg 32%
    08:00 +29°C° 0 mm 1 m/S 709 mmHg 26%
    09:00 +32°C° 0 mm 1 m/S 710 mmHg 19%
    10:00 +35°C° 0 mm 1 m/S 710 mmHg 13%
    11:00 +37°C° 0 mm 1 m/S 709 mmHg 11%
    12:00 +39°C° 0 mm 1 m/S 709 mmHg 10%
    13:00 +41°C° 0 mm 1 m/S 708 mmHg 11%
    14:00 +40°C° 0 mm 1 m/S 708 mmHg 11%
    15:00 +40°C° 0 mm 1 m/S 707 mmHg 11%
    16:00 +39°C° 0 mm 1 m/S 706 mmHg 11%
    17:00 +36°C° 0 mm 1 m/S 706 mmHg 12%
    18:00 +33°C° 0 mm 1 m/S 706 mmHg 14%
    19:00 +31°C° 0 mm 1 m/S 706 mmHg 16%
    20:00 +30°C° 0 mm 1 m/S 706 mmHg 17%
    21:00 +29°C° 0 mm 1 m/S 707 mmHg 18%
    22:00 +28°C° 0 mm 1 m/S 707 mmHg 19%
    23:00 +28°C° 0 mm 1 m/S 707 mmHg 20%

    Morgen, 17 Januar, Donnerstag

    Zeit Temperatur Niederschläge Wind Luftdruck Luftfeuchtigkeit
    00:00 +27°C° 0 mm 1 m/S 707 mmHg 21%
    01:00 +26°C° 0 mm 1 m/S 707 mmHg 21%
    02:00 +26°C° 0 mm 1 m/S 707 mmHg 22%
    03:00 +25°C° 0 mm 1 m/S 707 mmHg 22%
    04:00 +24°C° 0 mm 1 m/S 707 mmHg 22%
    05:00 +24°C° 0 mm 1 m/S 707 mmHg 23%
    06:00 +24°C° 0 mm 1 m/S 707 mmHg 24%
    07:00 +22°C° 0 mm 0 m/S 708 mmHg 25%
    08:00 +26°C° 0 mm 0 m/S 708 mmHg 20%
    09:00 +32°C° 0 mm 1 m/S 709 mmHg 16%
    10:00 +36°C° 0 mm 1 m/S 709 mmHg 11%
    11:00 +39°C° 0 mm 1 m/S 709 mmHg 10%
    12:00 +40°C° 0 mm 1 m/S 708 mmHg 9%
    13:00 +42°C° 0 mm 1 m/S 707 mmHg 8%
    14:00 +41°C° 0 mm 1 m/S 707 mmHg 9%
    15:00 +41°C° 0 mm 1 m/S 706 mmHg 9%
    16:00 +40°C° 0 mm 1 m/S 705 mmHg 9%
    17:00 +37°C° 0 mm 1 m/S 705 mmHg 11%
    18:00 +34°C° 0 mm 1 m/S 705 mmHg 13%
    19:00 +32°C° 0 mm 1 m/S 705 mmHg 15%
    20:00 +31°C° 0 mm 1 m/S 706 mmHg 16%
    21:00 +30°C° 0 mm 1 m/S 706 mmHg 18%
    22:00 +29°C° 0 mm 1 m/S 707 mmHg 19%
    23:00 +28°C° 0 mm 1 m/S 707 mmHg 19%

    übermorgen, 18 Januar, Freitag

    Zeit Temperatur Niederschläge Wind Luftdruck Luftfeuchtigkeit
    00:00 +27°C° 0 mm 1 m/S 707 mmHg 20%
    01:00 +27°C° 0 mm 1 m/S 707 mmHg 20%
    02:00 +26°C° 0 mm 1 m/S 707 mmHg 25%
    03:00 +25°C° 0 mm 1 m/S 707 mmHg 30%
    04:00 +24°C° 0 mm 1 m/S 707 mmHg 34%
    05:00 +24°C° 0 mm 1 m/S 707 mmHg 42%
    06:00 +24°C° 0 mm 2 m/S 707 mmHg 49%
    07:00 +24°C° 0 mm 2 m/S 708 mmHg 57%
    08:00 +27°C° 0 mm 2 m/S 709 mmHg 47%
    09:00 +31°C° 0 mm 2 m/S 709 mmHg 37%
    10:00 +35°C° 0 mm 2 m/S 710 mmHg 27%
    11:00 +37°C° 0 mm 2 m/S 709 mmHg 22%
    12:00 +39°C° 0 mm 1 m/S 708 mmHg 17%
    13:00 +41°C° 0 mm 1 m/S 708 mmHg 12%
    14:00 +41°C° 0 mm 1 m/S 707 mmHg 11%
    15:00 +40°C° 0 mm 2 m/S 706 mmHg 11%
    16:00 +40°C° 0 mm 2 m/S 705 mmHg 10%
    17:00 +37°C° 0 mm 2 m/S 705 mmHg 12%
    18:00 +34°C° 0 mm 1 m/S 706 mmHg 13%
    19:00 +31°C° 0 mm 1 m/S 706 mmHg 15%
    20:00 +30°C° 0 mm 1 m/S 706 mmHg 16%
    21:00 +29°C° 0 mm 1 m/S 707 mmHg 17%
    22:00 +26°C° 0 mm 0 m/S 707 mmHg 18%
    23:00 +27°C° 0 mm 1 m/S 707 mmHg 22%

    19 Januar, Samstag

    Zeit Temperatur Niederschläge Wind Luftdruck Luftfeuchtigkeit
    00:00 +27°C° 0 mm 1 m/S 707 mmHg 25%
    01:00 +26°C° 0 mm 1 m/S 707 mmHg 28%
    02:00 +25°C° 0 mm 1 m/S 707 mmHg 37%
    03:00 +25°C° 0 mm 1 m/S 707 mmHg 46%
    04:00 +25°C° 0 mm 2 m/S 707 mmHg 55%
    05:00 +25°C° 0 mm 2 m/S 707 mmHg 57%
    06:00 +25°C° 0 mm 2 m/S 708 mmHg 60%
    07:00 +25°C° 0 mm 3 m/S 708 mmHg 62%
    08:00 +27°C° 0 mm 3 m/S 709 mmHg 56%
    09:00 +30°C° 0 mm 3 m/S 709 mmHg 50%
    10:00 +33°C° 0 mm 3 m/S 710 mmHg 45%
    11:00 +36°C° 0 mm 2 m/S 709 mmHg 36%
    12:00 +39°C° 0 mm 1 m/S 709 mmHg 28%
    13:00 +39°C° 0 mm 0 m/S 708 mmHg 19%
    14:00 +41°C° 0 mm 1 m/S 707 mmHg 19%
    15:00 +40°C° 0 mm 1 m/S 706 mmHg 19%
    16:00 +39°C° 0 mm 1 m/S 706 mmHg 18%
    17:00 +36°C° 0 mm 1 m/S 706 mmHg 21%
    18:00 +33°C° 0 mm 1 m/S 706 mmHg 24%
    19:00 +31°C° 0 mm 1 m/S 706 mmHg 27%
    20:00 +30°C° 0 mm 1 m/S 707 mmHg 29%
    21:00 +30°C° 0 mm 1 m/S 707 mmHg 31%
    22:00 +29°C° 0 mm 1 m/S 708 mmHg 33%
    23:00 +28°C° 0 mm 1 m/S 707 mmHg 39%

    20 Januar, Sonntag

    Zeit Temperatur Niederschläge Wind Luftdruck Luftfeuchtigkeit
    00:00 +27°C° 0 mm 1 m/S 707 mmHg 44%
    01:00 +26°C° 0 mm 1 m/S 707 mmHg 50%
    02:00 +25°C° 0 mm 1 m/S 707 mmHg 54%
    03:00 +25°C° 0 mm 1 m/S 707 mmHg 57%
    04:00 +25°C° 0 mm 1 m/S 707 mmHg 61%
    05:00 +25°C° 0 mm 1 m/S 707 mmHg 61%
    06:00 +25°C° 0 mm 1 m/S 708 mmHg 61%
    07:00 +25°C° 0 mm 2 m/S 708 mmHg 61%
    08:00 +28°C° 0 mm 2 m/S 709 mmHg 54%
    09:00 +31°C° 0 mm 2 m/S 709 mmHg 47%
    10:00 +35°C° 0 mm 2 m/S 709 mmHg 40%
    11:00 +37°C° 0 mm 2 m/S 709 mmHg 33%
    12:00 +40°C° 0 mm 1 m/S 708 mmHg 26%
    13:00 +43°C° 0 mm 1 m/S 707 mmHg 19%
    14:00 +38°C° 0 mm 0 m/S 707 mmHg 20%
    15:00 +36°C° 0 mm 0 m/S 706 mmHg 21%
    16:00 +35°C° 0 mm 0 m/S 705 mmHg 22%
    17:00 +33°C° 0 mm 0 m/S 705 mmHg 25%
    18:00 +33°C° 0 mm 1 m/S 706 mmHg 28%
    19:00 +32°C° 0 mm 2 m/S 706 mmHg 31%
    20:00 +31°C° 0 mm 1 m/S 706 mmHg 34%
    21:00 +30°C° 0 mm 1 m/S 707 mmHg 36%
    22:00 +29°C° 0 mm 1 m/S 707 mmHg 39%
    23:00 +28°C° 0 mm 1 m/S 707 mmHg 41%

    21 Januar, Montag

    Zeit Temperatur Niederschläge Wind Luftdruck Luftfeuchtigkeit
    00:00 +28°C° 0 mm 1 m/S 707 mmHg 43%
    01:00 +27°C° 0 mm 1 m/S 707 mmHg 46%
    02:00 +27°C° 0 mm 1 m/S 707 mmHg 48%
    03:00 +26°C° 0 mm 2 m/S 707 mmHg 51%
    04:00 +26°C° 0 mm 2 m/S 707 mmHg 54%
    05:00 +26°C° 0 mm 2 m/S 707 mmHg 54%
    06:00 +26°C° 0 mm 2 m/S 708 mmHg 55%
    07:00 +26°C° 0 mm 3 m/S 709 mmHg 56%
    08:00 +29°C° 0 mm 3 m/S 709 mmHg 50%
    09:00 +31°C° 0 mm 3 m/S 709 mmHg 44%
    10:00 +35°C° 0 mm 3 m/S 709 mmHg 38%
    11:00 +37°C° 0 mm 2 m/S 709 mmHg 32%
    12:00 +39°C° 0 mm 2 m/S 708 mmHg 26%
    13:00 +41°C° 0 mm 2 m/S 707 mmHg 20%
    14:00 +40°C° 0 mm 1 m/S 706 mmHg 19%
    15:00 +39°C° 0 mm 1 m/S 706 mmHg 19%
    16:00 +39°C° 0 mm 1 m/S 705 mmHg 19%
    17:00 +36°C° 0 mm 1 m/S 705 mmHg 24%
    18:00 +35°C° 0 mm 2 m/S 705 mmHg 28%
    19:00 +32°C° 0 mm 2 m/S 706 mmHg 33%
    20:00 +30°C° 0 mm 2 m/S 706 mmHg 41%
    21:00 +29°C° 0 mm 1 m/S 706 mmHg 49%
    22:00 +27°C° 0 mm 1 m/S 706 mmHg 58%
    23:00 +27°C° 0 mm 1 m/S 706 mmHg 61%
    Mehr zeigen